TimeCST,TemperatureF,Dew PointF,Humidity,Sea Level PressureIn,VisibilityMPH,Wind Direction,Wind SpeedMPH,Gust SpeedMPH,PrecipitationIn,Events,Conditions,WindDirDegrees,DateUTC
12:15 AM,40.1,31.1,70,29.94,10.0,SSW,9.2,-,N/A,,Clear,200,2013-02-12 06:15:00
12:35 AM,39.4,31.1,72,29.94,10.0,South,8.1,-,N/A,,Clear,190,2013-02-12 06:35:00
12:55 AM,40.1,30.9,70,29.94,10.0,SW,10.4,-,N/A,,Clear,220,2013-02-12 06:55:00
1:15 AM,42.4,31.5,65,29.94,10.0,SW,11.5,-,N/A,,Clear,220,2013-02-12 07:15:00
1:35 AM,43.3,30.4,60,29.94,10.0,SSW,12.7,-,N/A,,Clear,210,2013-02-12 07:35:00
1:55 AM,42.4,27.9,56,29.95,10.0,SW,13.8,-,N/A,,Clear,220,2013-02-12 07:55:00
2:15 AM,41.7,26.4,55,29.95,10.0,SSW,9.2,-,N/A,,Clear,210,2013-02-12 08:15:00
2:35 AM,41.5,22.5,47,29.96,10.0,WSW,8.1,-,N/A,,Clear,250,2013-02-12 08:35:00
2:55 AM,41.0,21.2,45,29.96,10.0,SW,8.1,-,N/A,,Clear,230,2013-02-12 08:55:00
3:15 AM,41.7,19.0,40,29.96,10.0,WSW,9.2,-,N/A,,Clear,240,2013-02-12 09:15:00
3:35 AM,40.5,18.3,41,29.97,10.0,WSW,9.2,-,N/A,,Clear,240,2013-02-12 09:35:00
3:55 AM,39.9,17.8,41,29.97,10.0,SSW,8.1,-,N/A,,Clear,210,2013-02-12 09:55:00
4:15 AM,41.0,16.9,38,29.98,10.0,SW,6.9,-,N/A,,Clear,230,2013-02-12 10:15:00
4:35 AM,43.3,16.9,35,29.98,10.0,WSW,5.8,-,N/A,,Clear,240,2013-02-12 10:35:00
5:15 AM,43.0,17.2,36,29.99,10.0,SW,8.1,-,N/A,,Clear,220,2013-02-12 11:15:00
5:35 AM,40.5,18.1,41,30.00,10.0,SSW,9.2,-,N/A,,Clear,200,2013-02-12 11:35:00
5:55 AM,40.5,18.0,40,30.00,10.0,SSW,11.5,-,N/A,,Clear,210,2013-02-12 11:55:00
6:15 AM,40.5,17.4,39,30.02,10.0,WSW,8.1,-,N/A,,Clear,250,2013-02-12 12:15:00
6:35 AM,40.8,17.1,38,30.03,10.0,West,9.2,-,N/A,,Scattered Clouds,260,2013-02-12 12:35:00
6:55 AM,40.8,19.2,42,30.03,10.0,WSW,10.4,17.3,N/A,,Clear,250,2013-02-12 12:55:00
7:15 AM,40.6,23.9,51,30.06,10.0,WSW,9.2,-,N/A,,Clear,240,2013-02-12 13:15:00
7:35 AM,39.4,25.2,57,30.06,10.0,WSW,4.6,-,N/A,,Clear,240,2013-02-12 13:35:00
8:15 AM,41.2,24.3,51,30.07,10.0,WSW,18.4,24.2,N/A,,Clear,240,2013-02-12 14:15:00
8:35 AM,41.9,23.4,48,30.07,10.0,WSW,21.9,25.3,N/A,,Clear,240,2013-02-12 14:35:00
8:55 AM,42.4,23.4,47,30.07,10.0,WSW,24.2,36.8,N/A,,Clear,250,2013-02-12 14:55:00
9:15 AM,43.2,23.7,46,30.07,10.0,WSW,25.3,35.7,N/A,,Clear,240,2013-02-12 15:15:00
9:35 AM,44.1,23.0,43,30.08,10.0,WSW,27.6,41.4,N/A,,Clear,240,2013-02-12 15:35:00
9:55 AM,45.0,22.8,42,30.07,10.0,WSW,31.1,41.4,N/A,,Clear,240,2013-02-12 15:55:00
10:15 AM,45.7,22.6,40,30.09,10.0,WSW,20.7,38.0,N/A,,Clear,250,2013-02-12 16:15:00
10:35 AM,46.2,21.9,38,30.10,10.0,WSW,21.9,31.1,N/A,,Clear,240,2013-02-12 16:35:00
10:55 AM,46.6,20.1,35,30.10,10.0,WSW,28.8,40.3,N/A,,Clear,240,2013-02-12 16:55:00
11:15 AM,47.1,18.3,32,30.11,10.0,WSW,23.0,36.8,N/A,,Clear,250,2013-02-12 17:15:00
11:35 AM,48.6,16.7,28,30.10,10.0,WSW,27.6,32.2,N/A,,Clear,240,2013-02-12 17:35:00
11:55 AM,48.9,14.2,25,30.10,10.0,WSW,24.2,40.3,N/A,,Clear,250,2013-02-12 17:55:00
12:15 PM,49.6,11.8,22,30.10,10.0,WSW,26.5,34.5,N/A,,Clear,240,2013-02-12 18:15:00
12:35 PM,50.7,9.7,19,30.09,10.0,WSW,23.0,36.8,N/A,,Clear,250,2013-02-12 18:35:00
12:55 PM,51.4,7.0,17,30.09,10.0,West,28.8,38.0,N/A,,Clear,270,2013-02-12 18:55:00
1:15 PM,51.3,5.9,16,30.10,10.0,West,15.0,31.1,N/A,,Clear,270,2013-02-12 19:15:00
1:35 PM,51.3,6.3,16,30.09,10.0,West,18.4,33.4,N/A,,Clear,260,2013-02-12 19:35:00
1:55 PM,51.6,7.0,16,30.07,10.0,WSW,16.1,32.2,N/A,,Clear,250,2013-02-12 19:55:00
2:15 PM,51.6,4.5,15,30.06,10.0,West,28.8,35.7,N/A,,Clear,260,2013-02-12 20:15:00
2:35 PM,52.2,3.6,14,30.06,10.0,West,21.9,35.7,N/A,,Clear,270,2013-02-12 20:35:00
2:55 PM,52.3,2.1,13,30.07,10.0,West,15.0,28.8,N/A,,Clear,260,2013-02-12 20:55:00
3:15 PM,52.5,-0.0,12,30.07,10.0,West,17.3,26.5,N/A,,Clear,260,2013-02-12 21:15:00
3:35 PM,53.1,0.9,12,30.06,10.0,West,12.7,24.2,N/A,,Clear,270,2013-02-12 21:35:00
3:55 PM,52.7,1.0,12,30.06,10.0,West,16.1,21.9,N/A,,Clear,270,2013-02-12 21:55:00
4:15 PM,52.7,2.3,13,30.07,10.0,WNW,11.5,17.3,N/A,,Clear,300,2013-02-12 22:15:00
4:35 PM,52.5,3.6,14,30.08,10.0,WSW,9.2,-,N/A,,Clear,240,2013-02-12 22:35:00
4:55 PM,52.5,6.1,15,30.07,10.0,WNW,15.0,20.7,N/A,,Clear,300,2013-02-12 22:55:00
5:15 PM,52.0,9.0,18,30.07,10.0,WNW,12.7,18.4,N/A,,Clear,300,2013-02-12 23:15:00
5:35 PM,51.6,9.7,19,30.07,10.0,WNW,15.0,-,N/A,,Clear,300,2013-02-12 23:35:00
6:15 PM,49.8,9.5,20,30.08,10.0,WNW,11.5,-,N/A,,Clear,290,2013-02-13 00:15:00
6:35 PM,47.8,9.1,21,30.10,10.0,NW,9.2,-,N/A,,Clear,320,2013-02-13 00:35:00
6:55 PM,45.7,9.5,23,30.10,10.0,WNW,8.1,-,N/A,,Clear,300,2013-02-13 00:55:00
7:15 PM,43.7,9.7,25,30.11,10.0,WNW,9.2,-,N/A,,Clear,290,2013-02-13 01:15:00
7:35 PM,41.5,10.0,28,30.13,10.0,Calm,Calm,-,N/A,,Clear,0,2013-02-13 01:35:00
8:15 PM,38.8,9.9,30,30.14,10.0,Calm,Calm,-,N/A,,Clear,0,2013-02-13 02:15:00
8:35 PM,39.2,10.0,30,30.15,10.0,Calm,Calm,-,N/A,,Clear,0,2013-02-13 02:35:00
8:55 PM,38.7,9.9,31,30.16,10.0,Calm,Calm,-,N/A,,Clear,0,2013-02-13 02:55:00
9:15 PM,37.2,9.3,32,30.15,10.0,NNW,5.8,-,N/A,,Clear,330,2013-02-13 03:15:00
9:35 PM,35.6,9.5,34,30.16,10.0,East,4.6,-,N/A,,Clear,100,2013-02-13 03:35:00
9:55 PM,34.9,10.2,36,30.16,10.0,Calm,Calm,-,N/A,,Clear,0,2013-02-13 03:55:00
10:15 PM,36.5,10.6,34,30.17,10.0,Calm,Calm,-,N/A,,Clear,0,2013-02-13 04:15:00
10:35 PM,34.7,10.9,37,30.18,10.0,Calm,Calm,-,N/A,,Clear,0,2013-02-13 04:35:00
10:55 PM,31.8,11.1,42,30.18,10.0,SE,3.5,-,N/A,,Clear,140,2013-02-13 04:55:00
11:15 PM,31.1,12.2,46,30.18,10.0,Calm,Calm,-,N/A,,Clear,0,2013-02-13 05:15:00
11:35 PM,32.7,13.5,45,30.19,10.0,Calm,Calm,-,N/A,,Clear,0,2013-02-13 05:35:00
11:55 PM,32.2,14.9,49,30.19,10.0,Calm,Calm,-,N/A,,Clear,0,2013-02-13 05:55:00